Wind_Speed
28 28 28 28 29 29 29 29 30 30 30 32 32 33 33 32 31 32 31 29 28 28 27 27 27 27 26 26 25 24 23 21 20 19 18 17 17 17 17 16 16 15 15
29 29 29 28 27 28 28 28 28 29 30 30 31 32 32 32 32 32 32 31 31 31 29 28 28 29 29 29 28 27 26 25 23 22 21 20 19 19 19 18 17 17 17
28 28 27 26 25 26 26 26 27 28 29 29 30 31 30 31 31 31 32 33 33 32 31 30 29 29 30 31 31 31 30 29 27 25 24 23 22 21 21 20 20 19 19
27 26 25 24 24 24 24 24 25 26 27 28 29 30 31 31 31 31 31 32 32 32 32 31 30 29 29 32 33 33 33 32 31 29 28 27 26 25 24 23 22 21 21
25 24 23 23 22 22 22 22 22 23 24 26 28 29 30 31 31 32 31 31 31 31 31 32 31 31 30 31 34 35 36 35 34 33 32 31 30 29 27 26 25 24 23
24 24 23 22 22 21 21 20 21 22 23 25 27 28 29 30 31 31 31 31 31 30 31 32 31 31 31 32 33 36 37 37 37 36 35 34 33 33 32 30 29 28 27
24 23 22 21 21 21 21 21 22 23 24 26 27 28 29 30 31 31 31 31 30 31 32 31 32 31 31 32 32 34 36 37 38 38 37 36 35 35 35 34 32 32 31
23 22 22 22 21 21 22 22 23 23 24 26 28 29 29 30 31 30 30 30 30 29 30 30 31 31 31 31 31 33 35 37 38 38 39 38 38 37 36 36 35 35 34
24 23 23 23 23 23 23 23 23 24 25 27 28 30 30 29 30 30 30 30 30 30 30 29 29 30 30 31 31 32 34 36 38 39 39 40 39 38 38 38 37 37 36
25 25 25 25 25 25 25 25 25 25 26 27 29 31 31 31 30 28 29 29 29 30 30 29 29 29 28 28 29 30 31 33 36 37 38 39 39 39 39 38 38 37 37
28 28 29 29 29 28 28 28 28 28 28 28 29 30 31 31 31 29 27 29 29 30 29 28 28 27 26 26 27 27 29 31 33 34 36 37 37 38 38 38 38 38 38
32 32 32 32 33 32 32 31 31 30 30 30 30 31 31 31 31 30 27 27 28 29 29 28 28 27 27 27 26 25 26 28 29 31 32 33 35 36 37 37 38 38 38
36 36 36 36 36 36 35 34 34 33 32 31 31 31 31 31 30 29 28 26 27 28 28 28 28 28 27 27 26 25 25 25 26 27 28 30 31 32 33 34 36 37 37
40 40 40 39 39 38 38 37 35 34 33 32 31 31 30 30 29 28 27 26 26 26 27 27 27 27 27 26 25 25 25 24 25 25 26 27 29 30 31 33 34 34 35
45 44 43 42 41 40 40 39 37 35 34 33 32 30 30 29 28 27 27 26 25 25 26 26 27 27 26 26 25 25 24 25 25 26 26 27 28 29 31 31 32 32 33
52 50 48 45 43 42 41 40 38 36 35 34 33 31 30 28 27 27 26 25 25 25 25 26 26 26 26 26 25 24 24 25 25 26 27 28 28 28 29 30 30 31 31
57 55 53 51 47 45 43 42 40 38 36 34 34 32 30 28 27 27 26 25 25 25 24 24 24 24 25 25 25 24 24 25 25 25 25 25 26 28 29 29 29 29 30
62 61 58 55 52 49 47 44 41 39 37 35 34 32 30 29 28 27 26 25 25 24 24 24 24 24 25 25 25 24 24 23 24 24 25 25 26 26 27 28 28 28 28
66 64 61 58 55 53 50 47 44 41 39 36 35 33 31 29 28 27 27 25 24 24 23 23 23 24 24 24 25 24 24 23 23 23 23 23 24 24 24 25 26 26 27
70 69 66 61 58 56 53 49 47 44 42 39 37 34 32 30 28 27 26 24 23 23 22 21 21 22 23 23 23 23 24 24 23 22 21 21 22 22 22 23 23 24 24
75 73 70 67 63 59 56 52 49 46 44 41 39 36 33 31 29 27 27 25 23 22 22 21 21 22 22 22 22 21 21 21 21 21 20 20 20 20 20 20 20 20 21
78 77 75 73 69 65 59 54 49 47 45 41 39 36 34 32 29 28 27 25 23 22 21 21 21 21 21 21 21 21 21 21 22 22 22 21 19 19 19 18 18 17 17
65 70 73 74 72 69 64 58 53 49 45 42 38 37 35 32 30 28 27 26 24 23 22 21 21 21 21 20 21 21 20 20 20 20 20 18 17 17 16 15 15 14 14
43 49 55 62 65 66 63 60 56 52 48 44 41 39 36 33 31 29 28 27 26 24 23 21 20 21 21 21 22 21 20 19 18 17 17 15 14 13 12 11 11 10 10
33 35 38 43 49 53 55 56 56 53 50 47 43 40 37 34 32 30 28 27 25 24 22 22 21 20 21 20 19 19 18 16 15 15 14 14 13 11 10 10 9 9 9
29 30 31 33 36 41 45 48 49 50 49 47 44 42 39 35 33 30 29 26 25 23 22 21 22 21 21 20 19 18 16 14 14 14 14 12 11 10 9 8 8 7 7
Wind_Direction
291 290 288 288 288 288 286 284 283 283 283 282 281 281 277 276 273 272 271 271 271 275 274 270 267 262 259 256 255 256 256 256 256 254 253 251 249 248 248 250 251 251 252
290 289 287 287 287 287 288 288 288 287 287 288 287 284 283 278 276 273 271 269 268 271 272 270 268 264 259 256 253 252 253 253 254 253 252 252 252 251 250 251 253 255 255
289 288 288 287 287 287 288 290 290 289 288 288 288 286 286 283 280 277 271 271 270 268 269 268 267 265 261 256 252 250 249 250 251 252 251 250 251 252 252 253 254 255 256
288 286 285 286 287 288 290 291 293 294 293 291 290 288 288 286 282 278 275 275 273 269 266 265 267 266 263 258 254 250 247 249 250 250 250 250 250 251 252 252 254 255 256
286 284 284 285 286 287 289 292 295 298 298 298 296 293 292 289 284 280 279 279 276 272 267 262 263 263 265 262 254 250 247 246 248 249 250 250 250 250 251 252 252 254 255
282 281 281 283 285 287 290 293 298 302 303 303 301 298 294 291 289 285 281 277 274 271 269 265 262 263 263 263 257 251 248 247 247 249 250 250 251 251 251 252 252 254 255
279 279 280 282 285 286 289 292 297 302 305 307 307 304 299 294 290 287 282 278 275 271 268 267 265 261 260 261 259 252 249 248 247 248 249 249 250 251 251 251 253 254 254
275 276 278 281 283 286 288 291 296 300 304 307 309 309 305 298 293 288 283 278 274 271 268 266 265 262 260 257 257 254 250 249 249 249 249 249 250 251 251 251 252 254 254
273 273 276 278 281 284 287 290 294 298 302 304 308 310 309 303 296 290 286 280 273 268 267 265 263 261 259 257 255 255 252 251 249 249 249 249 250 249 251 252 253 253 254
271 273 274 277 279 282 285 288 290 295 299 302 305 309 310 306 301 293 286 280 273 267 265 263 263 259 258 256 256 256 253 250 250 249 250 250 249 249 250 250 251 252 253
272 273 275 277 278 280 282 285 288 291 295 299 302 305 308 307 303 297 288 280 273 268 262 261 262 261 260 257 257 257 256 253 251 250 250 250 249 249 249 249 250 251 253
273 273 274 276 277 279 280 282 285 288 291 295 299 302 305 306 302 298 291 281 274 268 263 259 259 260 260 259 260 259 259 257 253 251 250 249 249 249 248 248 250 252 253
275 275 275 276 277 277 278 280 282 284 286 291 296 300 303 304 302 298 292 284 276 269 264 261 260 259 259 261 261 261 260 256 254 253 252 250 249 248 248 249 250 253 254
275 275 275 276 276 276 276 277 278 281 283 287 292 296 300 302 302 299 293 286 279 272 266 262 261 260 261 261 262 260 258 257 255 254 254 254 252 250 250 251 252 253 255
272 272 272 272 272 273 273 274 275 277 279 283 288 292 297 300 301 299 294 288 281 274 268 263 261 260 259 260 262 260 257 256 256 256 256 255 254 253 252 253 253 254 254
271 269 268 267 267 268 269 271 271 273 275 278 283 288 292 296 299 298 293 289 284 277 270 265 262 260 258 259 261 261 258 257 255 256 257 256 255 253 253 253 255 254 253
270 269 267 266 266 265 265 266 267 269 270 273 278 283 287 292 295 296 293 288 284 279 272 266 262 259 258 258 258 259 258 256 256 257 256 256 255 255 255 256 256 255 254
268 267 267 265 265 264 263 263 264 265 266 269 273 278 282 287 291 292 292 288 284 280 272 265 260 258 258 257 257 258 256 255 256 256 255 255 256 257 257 257 257 258 257
267 266 265 264 263 262 262 261 259 260 262 265 269 273 277 282 287 288 289 286 282 279 274 265 258 256 256 256 256 255 254 255 255 255 254 253 254 256 257 258 259 259 257
266 265 263 262 262 261 259 259 258 257 257 261 265 268 272 277 282 284 285 283 279 277 273 266 259 256 256 255 254 253 253 252 251 255 256 254 255 258 259 258 258 258 257
265 264 262 261 260 260 259 257 256 255 255 258 259 263 267 272 277 279 281 280 276 273 270 265 260 256 255 252 251 251 251 251 253 256 256 256 256 257 259 258 258 258 258
264 262 261 260 259 258 257 255 255 255 254 256 255 257 262 267 272 275 276 276 274 270 266 263 258 253 251 251 252 253 252 255 255 256 255 254 254 253 254 255 255 256 258
265 262 260 258 257 256 255 253 251 252 252 252 252 253 257 262 267 270 270 270 270 266 262 261 256 251 248 251 252 253 249 252 254 252 250 246 245 247 250 250 250 252 253
271 265 260 257 255 253 251 250 249 247 248 247 248 250 254 258 262 264 265 266 266 264 260 255 254 251 250 250 245 248 249 250 250 243 240 236 236 238 236 238 239 240 246
277 270 263 256 252 247 244 243 244 242 242 242 243 246 249 253 257 259 261 261 262 258 253 253 250 250 246 245 246 249 246 240 235 232 230 226 223 224 225 226 228 236 246
281 274 267 258 250 242 236 233 234 235 236 237 239 242 245 248 251 255 256 257 256 251 250 251 244 245 246 246 242 240 233 228 225 221 218 214 212 211 214 220 227 236 248
Height
5872 5871 5870 5869 5867 5866 5866 5865 5864 5863 5863 5862 5860 5860 5861 5861 5862 5862 5863 5864 5865 5866 5866 5867 5868 5869 5870 5872 5874 5875 5877 5878 5879 5881 5882 5883 5884 5885 5886 5887 5888 5889 5890
5866 5865 5863 5862 5861 5860 5859 5858 5857 5856 5856 5855 5854 5853 5854 5854 5854 5855 5855 5856 5857 5858 5859 5860 5861 5862 5863 5865 5867 5869 5871 5873 5875 5876 5878 5879 5880 5882 5883 5884 5885 5886 5888
5860 5859 5858 5856 5855 5854 5853 5852 5851 5850 5849 5848 5847 5846 5846 5846 5847 5847 5847 5848 5848 5850 5852 5853 5854 5854 5856 5858 5860 5862 5865 5867 5869 5871 5873 5875 5876 5877 5879 5880 5882 5883 5884
5854 5853 5852 5851 5850 5849 5847 5846 5845 5844 5842 5841 5840 5840 5839 5839 5839 5838 5839 5840 5840 5841 5843 5845 5846 5847 5848 5850 5852 5854 5857 5860 5863 5865 5867 5869 5871 5873 5874 5876 5877 5879 5880
5849 5847 5846 5845 5844 5843 5842 5841 5840 5838 5837 5835 5834 5833 5832 5832 5831 5831 5831 5832 5832 5833 5834 5836 5837 5839 5840 5841 5843 5846 5849 5852 5855 5858 5860 5863 5865 5867 5869 5870 5872 5874 5876
5843 5842 5841 5840 5839 5838 5837 5836 5834 5833 5831 5829 5828 5827 5825 5824 5823 5823 5824 5824 5824 5825 5826 5826 5828 5830 5831 5833 5834 5837 5840 5843 5846 5849 5852 5855 5858 5860 5862 5864 5866 5868 5870
5837 5836 5835 5835 5834 5833 5831 5830 5829 5827 5825 5823 5821 5820 5818 5817 5816 5816 5815 5815 5816 5817 5818 5818 5818 5820 5822 5824 5826 5828 5831 5834 5837 5840 5844 5847 5849 5852 5855 5857 5859 5861 5864
5831 5831 5830 5829 5828 5827 5826 5825 5823 5821 5819 5816 5814 5813 5812 5811 5808 5808 5807 5807 5807 5807 5808 5809 5811 5812 5814 5816 5817 5819 5821 5825 5828 5831 5834 5838 5841 5844 5846 5849 5851 5854 5856
5825 5825 5824 5823 5822 5822 5820 5819 5817 5815 5813 5811 5807 5805 5804 5803 5801 5800 5799 5799 5799 5799 5800 5801 5802 5804 5805 5807 5808 5810 5813 5815 5818 5821 5824 5828 5831 5834 5838 5840 5843 5845 5848
5819 5819 5818 5817 5816 5815 5814 5812 5811 5809 5807 5805 5801 5798 5796 5794 5792 5792 5791 5790 5790 5791 5791 5792 5794 5795 5797 5798 5800 5802 5804 5806 5809 5812 5815 5818 5822 5825 5828 5831 5834 5837 5839
5812 5812 5811 5810 5809 5808 5807 5806 5804 5802 5800 5798 5795 5792 5789 5786 5783 5783 5783 5782 5782 5782 5783 5785 5786 5787 5789 5790 5792 5793 5795 5797 5800 5803 5806 5809 5812 5816 5819 5822 5825 5827 5830
5804 5804 5803 5803 5802 5801 5800 5798 5797 5795 5793 5790 5788 5785 5782 5779 5776 5774 5774 5774 5774 5774 5775 5777 5778 5779 5781 5783 5785 5786 5788 5790 5792 5794 5797 5800 5803 5806 5810 5812 5815 5818 5820
5794 5794 5794 5794 5793 5792 5791 5790 5789 5787 5786 5783 5781 5778 5775 5772 5769 5767 5766 5766 5766 5766 5767 5769 5771 5772 5774 5776 5778 5779 5781 5783 5785 5787 5790 5792 5795 5798 5801 5804 5806 5809 5811
5785 5784 5784 5784 5783 5782 5782 5781 5780 5779 5778 5776 5774 5771 5768 5765 5762 5760 5758 5758 5758 5759 5760 5761 5763 5765 5767 5769 5771 5772 5774 5776 5778 5780 5783 5785 5787 5790 5793 5795 5798 5800 5802
5773 5773 5773 5773 5773 5772 5772 5772 5771 5770 5769 5768 5766 5764 5761 5759 5756 5753 5752 5751 5751 5751 5752 5754 5756 5757 5759 5762 5764 5765 5768 5770 5772 5774 5776 5778 5780 5782 5785 5787 5789 5791 5794
5759 5760 5760 5760 5761 5761 5761 5761 5761 5761 5760 5760 5758 5756 5754 5752 5749 5747 5745 5744 5743 5744 5745 5746 5748 5750 5752 5754 5756 5758 5761 5763 5765 5767 5769 5770 5772 5775 5777 5779 5781 5783 5785
5742 5744 5745 5746 5747 5749 5749 5750 5750 5750 5750 5750 5749 5748 5746 5744 5742 5740 5739 5738 5737 5737 5737 5739 5741 5743 5745 5747 5749 5751 5753 5755 5757 5759 5761 5763 5765 5767 5769 5771 5773 5775 5777
5724 5726 5728 5730 5733 5735 5736 5738 5739 5739 5740 5741 5740 5740 5738 5737 5735 5734 5732 5731 5730 5730 5730 5731 5733 5735 5737 5739 5741 5744 5746 5748 5750 5752 5754 5756 5758 5760 5762 5764 5766 5768 5770
5704 5707 5709 5713 5716 5719 5722 5724 5726 5728 5729 5730 5731 5731 5730 5729 5728 5726 5725 5724 5724 5723 5724 5725 5726 5728 5730 5732 5734 5736 5739 5741 5743 5745 5747 5749 5751 5753 5755 5756 5758 5760 5762
5684 5686 5690 5694 5698 5702 5706 5709 5712 5715 5717 5719 5720 5721 5721 5721 5720 5719 5718 5718 5718 5718 5718 5719 5720 5722 5724 5725 5727 5729 5732 5734 5736 5738 5740 5742 5744 5746 5748 5750 5751 5753 5755
5660 5664 5668 5673 5678 5684 5689 5693 5697 5701 5704 5707 5709 5711 5712 5712 5711 5711 5711 5711 5711 5711 5712 5713 5715 5716 5718 5719 5721 5723 5726 5728 5730 5732 5734 5737 5739 5740 5742 5743 5745 5746 5748
5634 5638 5644 5650 5656 5663 5670 5676 5681 5686 5690 5694 5697 5700 5702 5703 5703 5703 5703 5704 5705 5705 5706 5707 5709 5711 5712 5714 5716 5718 5721 5723 5725 5727 5729 5731 5733 5735 5737 5738 5740 5741 5743
5607 5612 5617 5624 5632 5641 5649 5658 5665 5671 5676 5681 5686 5689 5692 5694 5695 5695 5696 5697 5698 5699 5700 5702 5703 5705 5706 5709 5711 5713 5715 5717 5719 5722 5724 5726 5728 5730 5731 5733 5734 5736 5738
5588 5590 5594 5599 5608 5617 5627 5637 5646 5655 5662 5668 5673 5678 5681 5684 5686 5687 5688 5690 5691 5692 5694 5695 5697 5699 5701 5703 5705 5708 5710 5712 5714 5716 5719 5721 5723 5725 5727 5729 5730 5732 5734
5575 5575 5577 5581 5587 5595 5605 5616 5627 5637 5646 5653 5660 5666 5670 5674 5676 5679 5680 5682 5684 5686 5687 5689 5691 5694 5696 5698 5700 5703 5705 5707 5710 5712 5715 5717 5719 5721 5723 5725 5727 5729 5730
5565 5565 5565 5568 5572 5578 5587 5598 5608 5619 5630 5639 5646 5653 5659 5663 5667 5670 5672 5675 5677 5679 5682 5684 5686 5689 5691 5693 5696 5699 5701 5704 5706 5709 5711 5714 5716 5718 5720 5722 5724 5726 5727